Location: Ferchesar
(52.6477°N, 12.4298°E)
Time: 04:24:19
(UTC+01:00)

Vanguard 1 - Pass Details

Date: 12 December 2021
Orbit: 652 x 3830 km, 34.2° (Epoch: 21 January)

Event Time Altitude Azimuth Distance (km) Brightness Sun altitude
Rises 04:19:26 0° 277° (W) 7,891 - -33.9°
Reaches altitude 10° 04:26:28 10° 266° (W) 6,940 - -32.8°
Exits shadow 04:40:58 24° 228° (SW) 5,496 13.4 -30.6°
Maximum altitude 04:42:00 24° 224° (SW) 5,444 13.4 -30.5°
Drops below altitude 10° 04:54:56 10° 179° (S) 5,667 13.9 -28.5°
Sets 04:59:55 0° 166° (SSE) 6,207 14.3 -27.8°
